weather.gov     
National Weather Service

Regional Weather Roundup
NWS Homepage
This page is being discontinued on March 12, 2014.
The same data is available at this site. Please update your bookmarks.
Thank you, and we apologize for the inconvenience.
Please send an email to SR-SRH.Webmaster@noaa.gov with any concerns.


Current Version
Previous Version:    01  02  03  04  05  06  07  08  09  10  11  12  13  14  15  16  17  18  19  20  21  22  23  24  25  26  27  28  29  30  
   31  32  33  34  35  36  37  38  39  40  41  42  43  44  45  46  47  48  49  50  51  52  53  54  55  56  57  58  59  60  
[Printable]
179
NZUS01 KOTX 192210
RWROTX
EASTERN WASHINGTON/NORTHERN IDAHO ROUNDUP
NATIONAL WEATHER SERVICE, SPOKANE WA
200 PM PST FRI DEC 19 2014

Note: "fair" indicated few or no clouds below 12,000 feet with no
significant weather and/or obstructions to visibility.

...NORTHEAST WASHINGTON AND NORTHERN IDAHO PANHANDLE...

CITY           SKY/WX    TMP DP  RH WIND       PRES   REMARKS
SPOKANE INTL   CLOUDY    41  37  86 SW15      29.89S
SPOKANE DOWNTO CLOUDY    44  37  76 SW10      29.92R
COEUR D ALENE  CLOUDY    39  36  87 S10       29.90S
DEER PARK      CLOUDY    41  38  89 SW8       29.91R
SANDPOINT      RAIN      37  37 100 SW3       29.90S

...SOUTHEAST WASHINGTON AND SOUTHERN IDAHO PANHANDLE...

CITY           SKY/WX    TMP DP  RH WIND       PRES   REMARKS
WALLA WALLA    CLOUDY    49  41  74 S12       29.98R
PULLMAN/MOSCOW CLOUDY    41  37  86 SW8       29.95S
LEWISTON       FOG       43  43 100 CALM      29.98R VSB 3/4
LOWELL           N/A     40  38  93 CALM      30.00R

...COLUMBIA BASIN...

CITY           SKY/WX    TMP DP  RH WIND       PRES   REMARKS
EPHRATA        PTSUNNY   41  38  89 S6        29.92R
MOSES LAKE     PTSUNNY   42  38  85 S3        29.94R
TRI CITIES     PTSUNNY   51  41  68 SW10      29.97S
HERMISTON      MOSUNNY   51  39  63 W14       29.99R
PENDLETON      MOSUNNY   47  40  76 W5        29.98R

...EAST SLOPES CASCADES...

CITY           SKY/WX    TMP DP  RH WIND       PRES   REMARKS
THE DALLES     SUNNY     50  41  71 CALM      30.00F
YAKIMA         MOSUNNY   44  38  79 W5        29.96R
ELLENSBURG     SUNNY     47  37  68 NW14      29.91S
WENATCHEE      MOSUNNY   43  37  79 SE6       29.91R
OMAK           CLOUDY    38  35  89 SW7       29.91R

...SOUTHERN BRITISH COLUMBIA...

CITY           SKY/WX    TMP DP  RH WIND       PRES   REMARKS
PENTICTON      PTSUNNY   41  37  87 S16G25    29.88R

...WESTERN MONTANA...

CITY           SKY/WX    TMP DP  RH WIND       PRES   REMARKS
MISSOULA       MIX PCPN  32  31  96 W3        29.92S FOG

...NEIGHBORING CITIES...

CITY           SKY/WX    TMP DP  RH WIND       PRES   REMARKS
SEATTLE        PTSUNNY   51  40  65 S13       29.95F




U.S. Dept. of Commerce
NOAA National Weather Service
1325 East West Highway
Silver Spring, MD 20910
E-mail: w-nws.webmaster@noaa.gov
Page last modified: May 16, 2007
NATIONAL WEATHER SERVICE: for Safety, for Work, for Fun - FOR LIFE